Winnemucca, NV

2:03 PM PST on December 16, 2017 (GMT -0800)
Winnemucca Municipal

Weather History for KWMC - March, 2012

Change the Weather History Date:

Friday, March 30, 2012

  Actual Average Record
Temperature  
Mean Temperature 58 °F 43 °F  
Max Temperature 69 °F 59 °F 79 °F (1966)
Min Temperature 46 °F 28 °F 3 °F (1905)
Degree Days  
Heating Degree Days 7 22  
Month to date heating degree days 693 718  
Since 1 July heating degree days 5331 5307  
Cooling Degree Days 0 0  
Month to date cooling degree days 0 0  
Year to date cooling degree days 0 0  
Growing Degree Days 8 (Base 50)    
Moisture  
Dew Point 37 °F    
Average Humidity 48    
Maximum Humidity 64    
Minimum Humidity 32    
Precipitation  
Precipitation T in 0.03 in 0.73 in (2017)
Month to date precipitation 0.99 0.80  
Year to date precipitation 2.28 2.33  
Snow  
Snow 0.00 in 0.10 in 4.50 in (1905)
Month to date snowfall 6.6 3.1  
Since 1 July snowfall 23.5 19.1  
Snow Depth 0.00 in    
Sea Level Pressure  
Sea Level Pressure 29.84 in    
Wind  
Wind Speed 11 mph (SSW)    
Max Wind Speed 21 mph    
Max Gust Speed 26 mph    
Visibility 10 miles    
Events Rain    
T = Trace of Precipitation, MM = Missing Value Source: NWS Daily Summary

Daily Weather History Graph

Daily Weather History Graph

Search for Another Location

Airport or City:

Trip Planner

Search our weather history database for the weather conditions in past years. The results will help you decide how hot, cold, wet, or windy it might be!

Date:

Astronomy

Mar. 30, 2012 Rise Set
Actual Time 6:37 AM PDT 7:14 PM PDT
Civil Twilight 6:09 AM PDT 7:42 PM PDT
Nautical Twilight 5:36 AM PDT 8:15 PM PDT
Astronomical Twilight 5:03 AM PDT 8:48 PM PDT
Moon 11:45 AM PDT (3/30) 1:56 AM PDT (3/30)
Length of Visible Light 13h 32m
Length of Day
12h 37m
Waxing Crescent, 50% of the Moon is Illuminated
Mar 30
Waxing Crescent
Mar 30
First Quarter
Apr 6
Full
Apr 13
Last Quarter
Apr 21
New

Hourly Weather History & Observations

Time (PDT) Temp. Dew Point Humidity Pressure Visibility Wind Dir Wind Speed Gust Speed Precip Events Conditions
12:56 AM 52.0 °F 34.0 °F 50% 29.91 in 10.0 mi SSW 11.5 mph - N/A   Overcast
1:56 AM 48.9 °F 35.1 °F 59% 29.91 in 10.0 mi South 8.1 mph - N/A   Mostly Cloudy
2:56 AM 48.9 °F 35.1 °F 59% 29.90 in 10.0 mi South 8.1 mph - N/A   Overcast
3:56 AM 48.0 °F 36.0 °F 63% 29.92 in 10.0 mi South 8.1 mph - 0.00 in Rain Light Rain
4:56 AM 48.9 °F 37.0 °F 64% 29.90 in 10.0 mi SSE 12.7 mph - 0.00 in   Overcast
5:56 AM 48.0 °F 36.0 °F 63% 29.88 in 10.0 mi South 8.1 mph - N/A   Mostly Cloudy
6:56 AM 48.9 °F 35.1 °F 59% 29.90 in 10.0 mi South 9.2 mph - N/A   Partly Cloudy
7:56 AM 51.1 °F 36.0 °F 56% 29.92 in 10.0 mi South 10.4 mph - N/A   Clear
8:56 AM 57.0 °F 35.1 °F 44% 29.91 in 10.0 mi South 13.8 mph - N/A   Overcast
9:56 AM 57.9 °F 36.0 °F 44% 29.92 in 10.0 mi South 15.0 mph 20.7 mph N/A   Overcast
10:56 AM 61.0 °F 37.0 °F 41% 29.92 in 10.0 mi SSW 11.5 mph 18.4 mph N/A   Partly Cloudy
11:56 AM 62.1 °F 36.0 °F 38% 29.88 in 10.0 mi South 19.6 mph 23.0 mph N/A   Overcast
12:56 PM 64.0 °F 36.0 °F 35% 29.84 in 10.0 mi SSW 17.3 mph 25.3 mph N/A   Clear
1:56 PM 63.0 °F 36.0 °F 37% 29.84 in 10.0 mi SW 16.1 mph 23.0 mph N/A   Overcast
2:56 PM 66.0 °F 37.0 °F 34% 29.81 in 10.0 mi SW 17.3 mph 24.2 mph N/A   Overcast
3:56 PM 68.0 °F 37.0 °F 32% 29.78 in 10.0 mi WSW 16.1 mph 24.2 mph N/A   Overcast
4:56 PM 66.0 °F 37.0 °F 34% 29.76 in 10.0 mi SW 8.1 mph - N/A   Overcast
5:56 PM 66.0 °F 37.0 °F 34% 29.75 in 10.0 mi WSW 10.4 mph 16.1 mph N/A   Overcast
6:56 PM 63.0 °F 37.0 °F 38% 29.75 in 10.0 mi WSW 11.5 mph - N/A   Clear
7:56 PM 63.0 °F 36.0 °F 37% 29.73 in 10.0 mi SW 10.4 mph 19.6 mph N/A   Overcast
8:56 PM 57.9 °F 37.9 °F 47% 29.74 in 10.0 mi Calm Calm - N/A   Scattered Clouds
9:56 PM 55.0 °F 42.1 °F 62% 29.76 in 10.0 mi West 5.8 mph - 0.00 in Rain Light Rain
10:56 PM 57.0 °F 41.0 °F 55% 29.74 in 10.0 mi WSW 4.6 mph - 0.00 in   Mostly Cloudy
11:56 PM 54.0 °F 41.0 °F 62% 29.73 in 10.0 mi WSW 4.6 mph - N/A   Overcast